Hourly Weather Roundup
Issued by NWS Central Illinois

Home | Current Version | Previous Version | Text Only | Print | Product List | Glossary On
Versions: 1 2 3 4 5 6 7 8 9 10 11 12 13 14 15 16 17 18 19 20 21 22 23 24 25 26 27 28 29 30 31 32 33 34 35 36 37 38 39 40 41 42 43 44 45 46 47 48 49 50
000
NZUS43 KILX 032210
HWRILX

AREA WEATHER ROUNDUP
NATIONAL WEATHER SERVICE, LINCOLN IL
500 PM CDT TUE MAY 03 2016


CITY           SKY/WX    TMP DP  RH WIND       PRES   REMARKS
BLOOMINGTON    MOSUNNY   64  40  41 W12       29.89F
CHAMPAIGN      CLOUDY    64  41  42 W10       29.89F
DANVILLE       CLOUDY    63  42  46 NW6       29.85F
DECATUR        CLOUDY    63  42  46 W3        29.91F
EFFINGHAM      MOSUNNY   64  44  49 W8        29.93F
FLORA          CLOUDY    64  41  43 W7        29.93F
GALESBURG      MOSUNNY   66  39  37 W15       29.88F
JACKSONVILLE   SUNNY     66  40  38 W12       29.92F
LACON          PTSUNNY   65  35  32 W8        29.86F
LAWRENCEVILLE  CLOUDY    63  42  46 W6        29.92F
LITCHFIELD     PTSUNNY   60  44  55 W10       29.94F
$$


CITY           SKY/WX    TMP DP  RH WIND       PRES   REMARKS
LINCOLN        CLOUDY    68  38  33 W8        29.89S
MACOMB         MOSUNNY   65  38  37 W14       29.92F
MATTOON        PTSUNNY   65  42  43 W9        29.89F
MT CARMEL AP   MOSUNNY   63  41  45 NW9       29.91F
OLNEY-NOBLE AP CLOUDY    61  43  51 W5        29.93S
PARIS          PTSUNNY   63  44  50 W3        29.90S
PEORIA         PTSUNNY   68  37  32 W14G20    29.88F
PONTIAC        PTSUNNY   67  40  38 W15       29.87F
RANTOUL        CLOUDY    64  44  47 W6        29.88S
ROBINSON       MOSUNNY   63  43  48 CALM      29.91F
SPRINGFIELD    PTSUNNY   64  43  46 SW8       29.92S
TAYLORVILLE    CLOUDY    64  45  48 W12G17    29.92S
$$

...REGIONAL REPORTS...


CITY           SKY/WX    TMP DP  RH WIND       PRES   REMARKS
CHICAGO O`HARE PTSUNNY   65  38  36 W16G22    29.80F
KANKAKEE       CLOUDY   N/A N/A N/A W9        29.85F
MOLINE         MOSUNNY   66  39  37 W15G24    29.85F
MOUNT STERLING SUNNY     64  38  39 W5        29.92S
MOUNT VERNON   CLOUDY    61  43  51 W5        29.96S
PITTSFIELD     MOSUNNY   65  38  36 W7        29.93F
QUINCY         MOSUNNY   66  38  35 VRB7      29.92F
ROCKFORD       CLOUDY    66  39  37 W17G23    29.82F
$$


CITY           SKY/WX    TMP DP  RH WIND       PRES   REMARKS
BURLINGTON     PTSUNNY   65  42  43 W10       29.89F
CEDAR RAPIDS   PTSUNNY   65  42  43 W23       29.84F
DES MOINES     CLOUDY    68  39  34 W13       29.89F
KIRKSVILLE     PTSUNNY   68  40  35 W10       29.93F
OTTUMWA        MOSUNNY   65  40  39 W14G23    29.89F
ST LOUIS       CLOUDY    64  42  44 VRB5      29.96F
$$


CITY           SKY/WX    TMP DP  RH WIND       PRES   REMARKS
TERRE HAUTE    MOSUNNY   65  38  36 N9        29.89F
EVANSVILLE     PTSUNNY   64  43  46 NW8       29.93F
INDIANAPOLIS   PTSUNNY   62  43  49 NW9       29.88F
LAFAYETTE      PTSUNNY   62  37  39 NW8       29.85F
MADISON        CLOUDY    65  37  35 W10G20    29.75F
MILWAUKEE      CLOUDY    66  33  29 W15G28    29.75F
$$





USA.gov is the U.S. government's official web portal to all federal, state and local government web resources and services.